Weather History for Huron, SD

Change the Weather History Date:

Tuesday, August 6, 2013

  Actual Average Record
Temperature  
Mean Temperature 72 °F 73 °F  
Max Temperature 85 °F 86 °F 106 °F (1980)
Min Temperature 58 °F 61 °F 43 °F (1976)
Degree Days  
Heating Degree Days 0 0  
Month to date heating degree days 0 0  
Since 1 June heating degree days 87 59  
Since 1 July heating degree days 21 8  
Cooling Degree Days 7 9  
Month to date cooling degree days 20 54  
Year to date cooling degree days 448 497  
Since 1 June cooling degree days 410 464  
Growing Degree Days 24 (Base 50)    
Moisture  
Dew Point 62 °F    
Average Humidity 69    
Maximum Humidity 90    
Minimum Humidity 47    
Precipitation  
Precipitation T in 0.09 in 1.10 in (1897)
Month to date precipitation 0.23 0.59  
Year to date precipitation 16.21 15.42  
Snow  
Snow 0.00 in 0.00 in 0.00 in ()
Month to date snowfall 0.0 0.0  
Since 1 June snowfall 0.0 0.0  
Since 1 July snowfall 0.0 0.0  
Snow Depth 0.00 in    
Sea Level Pressure  
Sea Level Pressure 29.79 in    
Wind  
Wind Speed 9 mph (WNW)    
Max Wind Speed 32 mph    
Max Gust Speed 45 mph    
Visibility 10 miles    
Events Rain    
T = Trace of Precipitation, MM = Missing Value Source: NWS Daily Summary

Daily Weather History Graph

Daily Weather History Graph

Search for Another Location

Airport:

Trip Planner

Search our weather history database for the weather conditions in past years. The results will help you decide how hot, cold, wet, or windy it might be!

Date:

Astronomy

Aug. 06, 2013 Rise Set
Actual Time 6:25 AM CDT 8:50 PM CDT
Civil Twilight 5:53 AM CDT 9:23 PM CDT
Nautical Twilight 5:12 AM CDT 10:03 PM CDT
Astronomical Twilight 4:26 AM CDT 10:49 PM CDT
Moon 6:20 AM CDT (8/6) 8:22 PM CDT (8/6)
Length of Visible Light 15h 29m
Length of Day
14h 24m
Waning Crescent, 0% of the Moon is Illuminated
Aug 6
Waning Crescent
Aug 6
New
Aug 14
First Quarter
Aug 20
Full
Aug 28
Last Quarter

Hourly Weather History & Observations

Time (CDT) Temp. Heat Index Dew Point Humidity Pressure Visibility Wind Dir Wind Speed Gust Speed Precip Events Conditions
12:55 AM 66.9 °F - 62.1 °F 84% 29.83 in 10.0 mi Calm Calm - N/A   Clear
1:55 AM 69.1 °F - 63.0 °F 81% 29.85 in 10.0 mi SW 8.1 mph - N/A   Clear
2:55 AM 71.1 °F - 64.0 °F 78% 29.72 in 10.0 mi SSW 12.7 mph 25.3 mph 0.00 in   Partly Cloudy
3:55 AM 69.1 °F - 63.0 °F 81% 29.73 in 10.0 mi SW 6.9 mph - N/A   Clear
4:55 AM 68.0 °F - 61.0 °F 78% 29.76 in 10.0 mi Calm Calm - N/A   Partly Cloudy
5:55 AM 70.0 °F - 57.9 °F 65% 29.78 in 10.0 mi West 13.8 mph 24.2 mph 0.00 in   Partly Cloudy
6:55 AM 66.0 °F - 60.1 °F 81% 29.73 in 10.0 mi West 10.4 mph 25.3 mph 0.00 in   Partly Cloudy
7:55 AM 66.0 °F - 61.0 °F 84% 29.74 in 10.0 mi Calm Calm - N/A   Clear
8:55 AM 71.1 °F - 61.0 °F 70% 29.75 in 10.0 mi NW 6.9 mph - N/A   Clear
9:55 AM 73.9 °F - 63.0 °F 68% 29.77 in 10.0 mi WNW 8.1 mph - N/A   Clear
10:55 AM 79.0 °F - 64.0 °F 60% 29.77 in 10.0 mi WNW 9.2 mph - N/A   Clear
11:55 AM 81.0 °F 82.2 °F 63.0 °F 54% 29.79 in 10.0 mi WNW 11.5 mph - N/A   Clear
12:55 PM 82.9 °F 84.4 °F 64.0 °F 53% 29.79 in 10.0 mi WNW 16.1 mph 23.0 mph N/A   Clear
1:55 PM 84.0 °F 85.4 °F 64.0 °F 51% 29.78 in 10.0 mi West 12.7 mph 19.6 mph N/A   Clear
2:55 PM 84.0 °F 85.4 °F 64.0 °F 51% 29.77 in 10.0 mi West 12.7 mph 18.4 mph N/A   Clear
3:55 PM 82.9 °F 84.4 °F 64.0 °F 53% 29.76 in 10.0 mi West 11.5 mph 21.9 mph N/A   Clear
4:55 PM 75.9 °F - 64.9 °F 69% 29.77 in 10.0 mi West 9.2 mph - 0.00 in Rain Light Rain
5:55 PM 82.9 °F 83.2 °F 60.1 °F 46% 29.77 in 10.0 mi West 17.3 mph - 0.00 in   Clear
6:55 PM 82.0 °F 82.7 °F 61.0 °F 49% 29.77 in 10.0 mi West 11.5 mph - N/A   Clear
7:55 PM 79.0 °F - 62.1 °F 56% 29.78 in 10.0 mi WNW 9.2 mph - N/A   Clear
8:55 PM 70.0 °F - 60.1 °F 71% 29.81 in 10.0 mi NNW 8.1 mph - N/A   Clear
9:18 PM 71.6 °F - 59.0 °F 64% 29.85 in 10.0 mi NNE 10.4 mph - N/A   Clear
9:55 PM 68.0 °F - 60.1 °F 76% 29.85 in 10.0 mi NNE 5.8 mph - N/A   Clear
10:55 PM 64.9 °F - 59.0 °F 81% 29.86 in 10.0 mi NNW 3.5 mph - N/A   Clear
11:55 PM 61.0 °F - 57.9 °F 90% 29.90 in 10.0 mi NNW 3.5 mph - N/A   Clear